BEIDOU-2 G4

Last updated on Sun Dec 14 2025 00:02:49 GMT+0000 (Coordinated Universal Time)

1 37210U 10057A 25347.32490406 -.00000098 00000+0 00000+0 0 9991 2 37210 3.1864 69.9376 0010814 191.2025 98.1580 1.00271593 55426
UTC large
Height (km)
Speed (km/s)
/
Latitude / Longitude
Inclination (degrees)
Orbital Period (minutes)
Azimuth
Elevation
Range (km)
Doppler Factor

Next 0 passes for location: London (51.5072 / 0.1276)

Sorry there are no passes over London.